www.pogodaiklimat.ru

Погода и климат >> Архив погоды >> Казахстан >> Караганда


АРХИВ ПОГОДЫ в Караганде

Время (UTC), дата Ветер
(напр.,м/с)
 
Видим.   Явления Облачность Т
(С)
Тd
(С)
f
(%)
Тe
(С)
Тes
(С)
Комфортность P
(гПа)
Po
(гПа)
Тmin
(С)
Tmax
(С)
R
(мм)
R24
(мм)
S
(см)
12 12.08 ЮВ 4 20 км 8/0
[Ci sp]
+31.3 -1.7 12 +28 +30 жарко 998.9 939.4
15 12.08 В 2 20 км 9/8 600 м
[Cb cap Ac trans Ci sp]
+26.5 -0.8 17 +24 +24 комфорт 998.5 938.2 +33.0
18 12.08 ЮЗ 4 20 км в посл. час ливневой дождь 10/6 600 м
[Cb cap Ac und]
+26.4 +3.8 23 +25 +25 комфорт 998.9 938.6 +33.0
21 12.08 Ю 3 20 км ясно +23.0 +3.0 27 +23 +23 комфорт 999.2 938.1
00 13.08 Ю 2 20 км 8/0
[Ac lent]
+19.0 +5.0 40 +20 +20 тепло 1001.3 939.3
03 13.08 ЮЗ 3 20 км 8/0
[Ac trans]
+19.5 +4.9 38 +20 +22 тепло 1002.6 940.7
06 13.08 Ю 4 20 км 4/3 1000 м
[Cu hum Ci fib]
+24.8 +4.0 26 +24 +30 комфорт 1001.8 941.0 +18.0 0.0
09 13.08 З 5 20 км 5/5 1000 м
[Cu med, cong]
+26.0 +3.9 24 +25 +28 комфорт 1001.8 941.2
12 13.08 ЮЗ 3 20 км 5/5 1000 м
[Cu med, cong]
+25.0 +3.7 25 +24 +25 комфорт 1002.3 941.4
15 13.08 Ю 1 20 км 4/3 1000 м
[Sc diur, vesp Ci fib]
+22.4 +4.6 31 +23 +23 комфорт 1003.8 942.3 +27.4
18 13.08 В 1 20 км ясно +16.0 +6.0 51 +17 +17 по сезону 1005.6 942.8 +27.4
21 13.08 Ю 1 20 км ясно +16.0 +4.4 46 +17 +17 тепло 1006.1 943.2
00 14.08 ЮВ 2 20 км ясно +12.3 +3.6 55 +12 +12 по сезону 1007.5 943.7
03 14.08 Ю 2 20 км 3/3 1000 м
[Sc]
+17.8 +4.8 42 +18 +22 по сезону 1007.1 944.5
06 14.08 ЮЗ 3 20 км 3/3 1000 м
[Cu hum]
+24.9 +2.5 23 +24 +32 комфорт 1005.8 944.7 +12.0
09 14.08 ЮЗ 3 20 км 3/3 1000 м
[Cu med, cong Ci fib]
+26.8 +1.8 20 +25 +32 комфорт 1005.2 944.5
12 14.08 З 2 20 км 8/4 600 м
[Cb cap Ci fib]
+26.1 +2.8 22 +25 +26 комфорт 1004.4 943.6
15 14.08 С 2 20 км в посл. час ливневой дождь 6/4 600 м
[Cb cap Ci fib]
+17.0 +13.2 78 +17 +17 прохладно 1007.0 944.4 +27.6
18 14.08 СЗ 4 20 км {ливн. осадки} 8/5 600 м
[Cb cap Ci fib]
+17.4 +9.6 60 +17 +17 по сезону 1007.3 944.7 +27.6 2
21 14.08 СЗ 3 20 км {ливн. осадки} 8/8 600 м
[Cb cap]
+15.7 +8.2 61 +15 +15 по сезону 1007.6 944.7
00 15.08 СЗ 3 20 км {ливн. осадки} 8/8 600 м
[Cb cap]
+14.4 +9.9 74 +14 +14 по сезону 1008.3 945.0
03 15.08 ЮЗ 2 20 км {ливн. осадки} 9/4 600 м
[Cb cap Ac trans]
+16.4 +10.1 66 +17 +18 по сезону 1009.2 946.3
06 15.08 З 3 20 км {ливн. осадки} 8/5 600 м
[Cb cap Ac trans Ci fib]
+20.5 +8.8 47 +22 +26 комфорт 1008.7 946.7 +13.6 0.7
09 15.08 З 4 20 км 8/3 1000 м
[Cu med, cong Ci fib]
+22.6 +1.1 24 +22 +27 комфорт 1008.0 946.3
12 15.08 З 2 20 км 9/8 600 м
[Cb cap Ci sp]
+22.0 +0.6 24 +21 +22 комфорт 1008.3 946.5
15 15.08 С 2 20 км 8/8 1000 м
[Sc diur, vesp]
+19.9 +4.6 37 +21 +21 комфорт 1009.3 947.0 +24.5
18 15.08 СВ 1 20 км 8/8 1000 м
[Sc]
+15.0 +5.6 53 +16 +16 по сезону 1010.8 947.4 +24.5
21 15.08 В 1 20 км 6/0
[Ac trans]
+14.5 +7.2 62 +15 +15 по сезону 1010.6 947.2
00 16.08 штиль 0 20 км 8/3 600 м
[Cb cap Ac trans]
+11.0 +7.4 78 +10 +10 по сезону 1011.6 947.4
03 16.08 ЮВ 1 20 км 6/0
[Ac trans]
+15.5 +6.0 53 +16 +20 по сезону 1011.0 947.7
06 16.08 С 2 20 км 8/8 1000 м
[Cu med, cong Ci fib]
+22.6 +5.2 32 +23 +25 комфорт 1008.9 947.2 +10.4
09 16.08 В 2 20 км в посл. час ливневой дождь 9/9 600 м
[Cb cap]
+19.0 +8.0 49 +20 +21 прохладно 1009.6 947.2
12 16.08 СВ 1 20 км {ливн. осадки} 9/9 600 м
[Cb cap]
+20.4 +6.0 39 +22 +23 комфорт 1009.6 947.4
15 16.08 Ю 1 20 км 8/6 1000 м
[Cb cap Ci fib]
+17.2 +8.2 55 +18 +18 прохладно 1011.2 948.3 +23.7
18 16.08 З 1 20 км в посл. час ливневой дождь 4/0
[Ac trans]
+15.5 +10.1 70 +16 +16 по сезону 1012.3 949.0 +23.7 0.0
21 16.08 штиль 0 20 км 3/0
[Ac trans]
+11.8 +9.5 86 +11 +11 прохладно 1012.2 948.1
00 17.08 В 2 20 км слаб. ливневой дождь 9/8 600 м
[Cb cap]
+13.7 +9.3 75 +13 +13 по сезону 1013.2 949.4
03 17.08 Ю 1 20 км {ливн. осадки} 6/5 600 м
[Cb cap Ac trans]
+16.0 +10.9 72 +17 +19 по сезону 1013.2 950.0
06 17.08 СЗ 5 10 км слаб. ливневой дождь 9/9 600 м
[Cb cap]
+17.8 +11.3 66 +17 +18 холодно 1013.5 950.6 +10.5 0.7
09 17.08 С 2 20 км {ливн. осадки} 8/8 600 м
[Cb cap]
+20.0 +11.1 57 +22 +24 комфорт 1012.2 949.9
12 17.08 СВ 3 20 км {ливн. осадки} 8/4 600 м
[Cb cap Ci fib]
+20.4 +10.7 54 +22 +24 комфорт 1012.6 950.3
15 17.08 С 1 20 км 5/3 600 м
[Cb cap Ci fib]
+17.0 +12.0 72 +18 +18 по сезону 1014.5 951.4 +22.4
18 17.08 С 1 20 км 3/0
[Ac trans Ci fib]
+14.8 +11.5 81 +15 +15 по сезону 1015.2 951.6 +22.4 0.0
21 17.08 С 2 20 км 1/0
[Ci fib]
+13.0 +11.2 89 +12 +12 по сезону 1015.9 951.9
00 18.08 С 1 4000 м дымка 1/0
[Ac trans]
+11.9 +10.8 93 +12 +12 по сезону 1017.1 952.7
03 18.08 С 2 20 км 3/0
[Ac trans]
+16.0 +11.3 74 +16 +20 по сезону 1017.1 953.6
06 18.08 С 4 20 км 8/8 1000 м
[Cu med, cong]
+22.5 +8.7 41 +24 +26 комфорт 1015.8 953.7 +11.8
09 18.08 СВ 5 20 км 5/5 1000 м
[Cu med, cong]
+25.0 +6.8 31 +25 +28 комфорт 1015.2 953.6
12 18.08 СВ 5 20 км 4/4 1000 м
[Cu hum]
+25.1 +5.8 29 +25 +26 комфорт 1015.9 954.3
15 18.08 С 1 20 км 3/0
[Ci fib]
+20.5 +9.7 50 +23 +23 комфорт 1018.4 955.8 +26.5
18 18.08 штиль 0 20 км 3/0
[Ci fib]
+16.5 +5.8 49 +16 +16 по сезону 1020.4 956.8 +26.5
21 18.08 штиль 0 20 км ясно +11.0 +8.6 85 +10 +10 прохладно 1022.1 957.2
00 19.08 штиль 0 20 км 3/0
[Ci fib]
+12.0 +8.9 81 +11 +11 по сезону 1022.5 957.8
03 19.08 ЮЗ 1 20 км 8/6 1000 м
[Sc Ac trans]
+18.0 +10.7 62 +19 +21 тепло 1021.8 958.4
06 19.08 С 3 20 км 9/3 600 м
[Cb cap Ac trans]
+24.4 +10.9 43 +26 +29 жарко 1019.7 957.8 +10.5
09 19.08 С 2 20 км 10/8 1000 м
[Cu hum Ac und]
+26.2 +11.4 40 +27 +28 жарко 1018.4 957.0

 

Местоположение метеостанции Караганда (Карагандинская область, Казахстан): широта 49.80 долгота 73.15 высота над уровнем моря 553 м.

В архиве по умолчанию представлена погода в Караганде за последнюю неделю. Архивные данные за месяц целиком и за предыдущие месяцы, начиная с января 2011 года, Вы можете получить, выбрав интересующий диапазон дат из раскрывающегося списка и нажав кнопку "Ввод!".


*Определитесь, кто Вы:
робот инопланетянин человек

Внимание! Время в таблицах - всемирное. Для получения местного времени необходимо прибавить поправку, которая равна 6 ч.

Смотрите также архив погоды в соседних городах и на ближайших метеорологических станциях:

Погода в Караганде-ШОС (Карагандинская область, Казахстан) (4 км)
Погода в Корнеевке (Карагандинская область, Казахстан) (11 км)
Погода в Темиртау (Карагандинская область, Казахстан) (33 км)
Погода в Топаре (Карагандинская область, Казахстан) (40 км)
Погода в Осакаровке (Карагандинская область, Казахстан) (94 км)
Погода в Молодежном (Карагандинская область, Казахстан) (107 км)
Погода в Бесобе (Карагандинская область, Казахстан) (108 км)
Погода в Жарыке (Карагандинская область, Казахстан) (108 км)
Погода в Кертинди (Карагандинская область, Казахстан) (114 км)
Погода в Киевке (Карагандинская область, Казахстан) (123 км)

Пояснения к столбцам:

Ветер - указаны скорость ветра в м/с - средняя за 10 мин, порывы в срок и между сроками (в фигурных скобках) и направление, откуда дует ветер: С - северный, СВ - северо-восточный, В - восточный, ЮВ - юго-восточный, Ю - южный, ЮЗ - юго-западный, З - западный, СЗ - северо-западный.
Видимость - горизонтальная дальность видимости в метрах или километрах. При видимости от 1 до 10 км при отсутствии осадков обычно наблюдается дымка, при ухудшении видимости до 1 км и менее - туман. В сухую погоду видимость может ухудшаться дымом, пылью или мглою.
Явления - указаны атмосферные явления, наблюдавшиеся в срок или в последний час перед сроком; фигурными скобками обозначены явления, наблюдавшиеся между сроками (за 1-3 часа до срока); квадратными скобками обозначены град или гололедные отложения с указанием их диаметра в мм.
Облачность - указаны через наклонную черту общая и нижняя облачность в баллах и высота нижней границы облаков в метрах; квадратными скобками обозначены формы облаков: Ci - перистые, Cs - перисто-слоистые, Cc - перисто-кучевые, Ac - высококучевые, As - высокослоистые, Sc - слоисто-кучевые, Ns - слоисто-дождевые, Cu - кучевые, Cb - кучево-дождевые. Подробнее классификацию облаков см. в Атласе облаков (PDF).
T - Температура воздуха - температура, измеренная на высоте 2 м над землей.
Td - Температура точки росы - температура, при понижении до которой содержащийся в воздухе водяной пар достигнет насыщения.
f - Относительная влажность воздуха - влажноcть воздуха, измеренная на высоте 2 м над землей.
Te - Эффективная температура - температура, которую ощущает одетый по сезону человек в тени. Характеристика душности погоды. При расчете учитывается влияние влажности воздуха и скорости ветра на теплоощущения человека.
Tes - Эффективная температура на солнце - температура, которую ощущает человек, с поправкой на солнечный нагрев. Характеристика знойности погоды. Зависит от высоты солнца над горизонтом, облачности и скорости ветра. Ночью, в пасмурную погоду, а также при ветре 12 м/с и более поправка равна нулю.
P - Атмосферное давление - приведенное к уровню моря атмосферное давление.
Po - Атмосферное давление - измеренное на уровне метеостанции атмосферное давление.
Tmin - Минимальная температура - минимум температуры воздуха на высоте 2 м над землей.
Tmax - Максимальная температура - максимум температуры воздуха на высоте 2 м над землей.
R - Количество осадков - Количество выпавших осадков за период времени, мм. При наведении курсора мыши на число - период времени, за который выпало указанное количество осадков.
R24 - Количество осадков - Количество выпавших осадков за 24 часа, мм.
S - Снежный покров - Высота снежного покрова, см. При наведении курсора мыши на число - состояние снежного покрова и степень покрытия местности в баллах.